Weather History for Gage, OK

Change the Weather History Date:

Sunday, November 25, 2012

  Actual Average Record
Temperature  
Mean Temperature 46 °F -  
Max Temperature 63 °F 55 °F 82 °F (1981)
Min Temperature 28 °F 30 °F 10 °F (1975)
Degree Days  
Heating Degree Days 20    
Moisture  
Dew Point 25 °F    
Average Humidity 51    
Maximum Humidity 78    
Minimum Humidity 24    
Precipitation  
Precipitation 0.00 in - - ()
Sea Level Pressure  
Sea Level Pressure 29.87 in    
Wind  
Wind Speed 4 mph (ENE)    
Max Wind Speed 10 mph    
Max Gust Speed -    
Visibility 10 miles    
Events      
Averages and records for this station are not official NWS values.
T = Trace of Precipitation, MM = Missing Value Source: NWS Daily Summary

Daily Weather History Graph

Daily Weather History Graph

Search for Another Location

Airport:

Trip Planner

Search our weather history database for the weather conditions in past years. The results will help you decide how hot, cold, wet, or windy it might be!

Date:

Astronomy

Nov. 25, 2012 Rise Set
Actual Time 7:26 AM CST 5:25 PM CST
Civil Twilight 6:58 AM CST 5:53 PM CST
Nautical Twilight 6:27 AM CST 6:25 PM CST
Astronomical Twilight 5:56 AM CST 6:56 PM CST
Moon 3:40 PM CST (11/25) 4:45 AM CST (11/25)
Length of Visible Light 10h 54m
Length of Day
9h 58m
Waxing Gibbous, 93% of the Moon is Illuminated
Nov 25
Waxing Gibbous
Nov 28
Full
Dec 6
Last Quarter
Dec 13
New
Dec 19
First Quarter

Hourly Weather History & Observations

Time (CST) Temp. Windchill Dew Point Humidity Pressure Visibility Wind Dir Wind Speed Gust Speed Precip Events Conditions
12:53 AM 45.0 °F - 26.1 °F 48% 29.86 in 10.0 mi Calm Calm - N/A   Clear
1:53 AM 41.0 °F 36.4 °F 26.1 °F 55% 29.86 in 10.0 mi South 6.9 mph - N/A   Clear
2:53 AM 39.9 °F 36.7 °F 26.1 °F 58% 29.85 in 10.0 mi SW 4.6 mph - N/A   Clear
3:53 AM 36.0 °F 33.3 °F 26.1 °F 67% 29.85 in 10.0 mi SW 3.5 mph - N/A   Clear
4:53 AM 33.1 °F 27.7 °F 25.0 °F 72% 29.85 in 10.0 mi West 5.8 mph - N/A   Clear
5:53 AM 30.9 °F 26.2 °F 24.1 °F 76% 29.87 in 10.0 mi West 4.6 mph - N/A   Clear
6:53 AM 28.0 °F 22.8 °F 21.9 °F 78% 29.89 in 10.0 mi West 4.6 mph - N/A   Clear
7:53 AM 28.9 °F 23.9 °F 23.0 °F 78% 29.89 in 10.0 mi SW 4.6 mph - N/A   Clear
8:53 AM 35.1 °F - 24.1 °F 64% 29.91 in 10.0 mi Calm Calm - N/A   Clear
9:53 AM 46.0 °F 43.1 °F 24.1 °F 42% 29.90 in 10.0 mi NW 5.8 mph - N/A   Clear
10:53 AM 53.1 °F - 24.1 °F 32% 29.88 in 10.0 mi Variable 5.8 mph - N/A   Clear
11:53 AM 57.9 °F - 25.0 °F 28% 29.86 in 10.0 mi NNE 10.4 mph - N/A   Clear
12:53 PM 61.0 °F - 25.0 °F 25% 29.84 in 10.0 mi NE 6.9 mph - N/A   Clear
1:53 PM 63.0 °F - 25.0 °F 24% 29.82 in 10.0 mi NNE 4.6 mph - N/A   Clear
2:53 PM 63.0 °F - 26.1 °F 25% 29.81 in 10.0 mi Calm Calm - N/A   Clear
3:53 PM 63.0 °F - 26.1 °F 25% 29.82 in 10.0 mi ENE 4.6 mph - N/A   Clear
4:53 PM 60.1 °F - 26.1 °F 27% 29.83 in 10.0 mi ENE 4.6 mph - N/A   Clear
5:53 PM 51.1 °F - 25.0 °F 36% 29.85 in 10.0 mi East 4.6 mph - N/A   Clear
6:53 PM 45.0 °F 42.6 °F 25.0 °F 46% 29.88 in 10.0 mi East 4.6 mph - N/A   Clear
7:53 PM 39.0 °F 36.8 °F 25.0 °F 57% 29.91 in 10.0 mi ENE 3.5 mph - N/A   Clear
8:53 PM 39.9 °F 37.8 °F 25.0 °F 55% 29.90 in 10.0 mi East 3.5 mph - N/A   Clear
9:53 PM 36.0 °F 31.1 °F 25.0 °F 64% 29.90 in 10.0 mi ENE 5.8 mph - N/A   Clear
10:53 PM 35.1 °F 32.2 °F 26.1 °F 70% 29.90 in 10.0 mi SE 3.5 mph - N/A   Clear
11:53 PM 30.9 °F - 24.1 °F 76% 29.89 in 10.0 mi Calm Calm - N/A   Clear